[[{"header":{"parameterUnit":"m.s-1","parameterCategory":1,"la1":30.2991,"la2":30.254,"lo1":-89.0895,"lo2":-89.0444,"dy":0.0017,"dx":0.0017,"nx":28,"ny":28,"refTime":"2023-08-15T09:00:00:Z","depth":0,"parameterNumber":2,"parameterNumberName":"U-component_of_WINDS"},"data":[0,0,0,0,0,0,0,0,0,0,0,0,0,0,0,0,0,0,0,0,0,0,0,0,0,0,0,0,0,0,0,0,0,0,0,0,0,0,0,0,0,0,0,0,0,0,0,0,0,0,0,0,0,0,0,0,0,0,2.5648,2.565,0,2.5757,2.5758,2.5759,2.5766,2.5765,2.5764,2.5762,2.5879,2.5883,2.5887,0,0,0,0,0,0,0,0,0,0,0,0,0,2.5454,2.5458,2.5648,2.565,2.5651,2.5756,2.5758,2.5759,2.5766,2.5765,2.5763,2.5762,2.5877,2.5882,2.5887,0,0,0,0,0,0,0,0,0,0,0,0,0,2.5548,2.5459,2.5648,2.5667,2.567,2.5756,2.5758,2.576,2.5767,2.5765,2.5763,2.5761,2.5876,2.5882,2.5888,2.5965,0,0,2.5908,2.591,0,0,0,0,0,0,0,0,2.5543,2.5555,2.5663,2.5666,2.5669,2.5746,2.5732,2.5829,2.5767,2.573,2.5762,2.576,2.5836,2.5846,2.587,2.597,2.5975,2.5908,2.5912,2.5915,2.5917,0,0,0,0,0,0,0,2.5536,2.5551,2.5691,2.5664,2.5668,2.5672,2.5684,2.5751,2.5793,2.5733,2.5734,2.5746,2.5838,2.5864,2.5873,2.5977,2.5908,2.5914,2.5918,2.592,2.6147,2.6149,0,0,0,0,0,0,2.5525,2.5545,2.5688,2.5695,2.56,2.5677,2.569,2.5723,2.5792,2.58,2.5748,2.5746,2.5854,2.5866,2.5877,2.5972,2.5915,2.5921,2.5924,2.6145,2.6148,2.615,0,0,0,0,0,0,2.5521,2.5538,2.5684,2.562,2.5639,2.5683,2.572,2.5726,2.5753,2.5803,2.5811,2.5767,2.5853,2.5868,2.5943,2.5976,2.5924,2.5929,2.6143,2.6146,2.6149,2.6162,0,0,0,0,0,0,2.5515,2.5536,2.5564,2.5621,2.5642,2.5745,2.5722,2.573,2.5763,2.5762,2.5823,2.5831,2.5853,2.5933,2.5949,2.5984,2.5934,2.614,2.6144,2.6148,2.6159,2.6165,2.6171,0,0,0,0,0,2.5508,2.5564,2.5565,2.5583,2.5677,2.5747,2.576,2.5782,2.5766,2.5795,2.5828,2.5829,2.597,2.5941,2.5959,2.5996,2.6138,2.6143,2.6148,2.6156,2.6164,2.6171,0,0,0,0,0,0,2.5511,2.5572,2.5574,2.5649,2.5693,2.5748,2.5785,2.579,2.5841,2.5838,2.5866,2.5879,2.5953,2.5983,2.5949,2.6075,2.6053,2.6061,2.6053,2.6061,2.6067,2.6058,2.594,0,0,0,0,0,2.552,2.557,2.5621,2.5683,2.5704,2.5741,2.5772,2.5786,2.5833,2.5852,2.589,2.5938,2.5993,2.6029,2.6082,2.6164,2.6178,2.6199,2.6205,2.6209,2.6216,2.6263,2.6273,2.6167,2.6167,2.6166,0,0,2.554,2.5579,2.5609,2.5684,2.572,2.5772,2.5757,2.5813,2.5853,2.5862,2.5934,2.5964,2.6019,2.6097,2.6134,2.6124,2.6249,2.6216,2.6219,2.6224,2.6269,2.6279,2.6288,2.617,2.6169,2.6169,0,0,2.5603,2.5637,2.5692,2.5729,2.5782,2.5807,2.582,2.5876,2.5896,2.5968,2.5976,2.6026,2.612,2.6159,2.6192,2.6272,2.6276,2.6289,2.6321,2.6366,2.6374,2.6382,2.6411,2.6421,2.6296,2.6297,2.6297,0,2.5621,2.5698,2.5721,2.5777,2.5811,2.582,2.5878,2.5913,2.5982,2.6006,2.5994,2.6113,2.6151,2.624,2.6259,2.6285,2.6303,2.6282,2.6371,2.6379,2.6386,2.6414,2.6425,2.6298,2.6298,2.6297,2.6297,0,2.5718,2.5773,2.5812,2.5877,2.5915,2.5972,2.6005,2.6042,2.6054,2.608,2.6156,2.6202,2.6265,2.6288,2.63,2.6379,2.6371,2.6365,2.6342,2.6397,2.6424,2.6435,2.63,2.6299,2.6299,2.6298,0,0,2.5783,2.5862,2.5876,2.5906,2.5967,2.6011,2.607,2.613,2.6162,2.6211,2.6261,2.6342,2.6337,2.6374,2.6391,2.6431,2.6493,2.642,2.6422,2.6432,2.6584,2.6587,2.6599,2.6496,2.6498,2.65,2.6579,0,2.5852,2.5954,2.5978,2.6066,2.6118,2.6129,2.6181,2.6226,2.6253,2.6302,2.6334,2.639,2.6379,2.6402,2.6442,2.6476,2.6523,2.6471,2.6545,2.6547,2.6529,2.6613,2.6617,2.6689,2.659,2.6591,2.6593,0,2.5946,2.5995,2.6089,2.6145,2.6167,2.6213,2.6272,2.6318,2.637,2.6388,2.643,2.6443,2.6507,2.6483,2.6572,2.6536,2.6569,2.6591,2.6594,2.6601,2.6572,2.6622,2.6712,2.6723,2.6609,2.6608,2.6607,0,2.5984,2.6074,2.6142,2.6168,2.6235,2.6267,2.6297,2.6347,2.6383,2.6436,2.6459,2.6519,2.6552,2.6599,2.663,2.6609,2.6717,2.6695,2.6734,2.6734,2.6755,2.6753,2.6851,2.6778,2.6777,2.6777,2.6777,0,2.6058,2.6115,2.616,2.6201,2.6266,2.6295,2.6359,2.6389,2.6434,2.6484,2.6499,2.6545,2.6583,2.6635,2.666,2.6731,2.6746,2.6763,2.6768,2.6761,2.6759,2.6781,2.6777,2.678,2.6779,2.6779,2.6778,0,2.611,2.6143,2.6217,2.6276,2.6292,2.6337,2.6388,2.643,2.6459,2.6521,2.6538,2.6583,2.6646,2.6681,2.6761,2.6777,2.6856,2.686,2.6838,2.684,2.6877,2.6873,2.6993,2.701,2.6925,2.6926,2.6927,0,2.6154,2.6198,2.6261,2.6295,2.6325,2.6379,2.6416,2.6446,2.6484,2.6548,2.6583,2.6647,2.6698,2.6799,2.684,2.6901,2.6906,2.6944,2.6916,2.6907,2.6907,2.6903,2.6908,2.6949,2.6949,2.695,2.6951,0,2.623,2.6245,2.6296,2.6354,2.6397,2.6444,2.6491,2.6518,2.6558,2.66,2.6663,2.6704,2.6785,2.6848,2.6913,2.6946,2.6956,2.696,2.6972,2.6964,2.6949,2.6957,2.685,2.6956,2.6956,2.6955,2.6955,2.6955,2.628,2.632,2.637,2.6428,2.6467,2.6511,2.6553,2.6588,2.6641,2.6707,2.6724,2.6791,2.6845,2.6933,2.6968,2.7022,2.7016,2.7034,2.7038,2.7042,2.7043,2.6941,2.7035,2.7035,2.7035,2.7034,2.7034,0,2.6356,2.6389,2.6442,2.6507,2.6553,2.6557,2.661,2.6649,2.6707,2.6756,2.6807,2.6881,2.6943,2.699,2.7054,2.7089,2.7095,2.7105,2.7102,2.7109,2.7045,2.7028,2.7099,2.7099,2.7099,2.7099,2.7099,2.7099,2.64,2.6468,2.6489,2.6578,2.6612,2.6677,2.6707,2.6748,2.6787,2.6869,2.692,2.695,2.6999,2.7067,2.7125,2.7137,2.716,2.7169,2.7182,2.7121,2.7114,2.7107,2.7091,2.7174,2.7174,2.7242,2.7243,2.7243]},{"header":{"parameterUnit":"m.s-1","parameterCategory":1,"la1":30.2991,"la2":30.254,"lo1":-89.0895,"lo2":-89.0444,"dy":0.0017,"dx":0.0017,"nx":28,"ny":28,"refTime":"2023-08-15T09:00:00:Z","depth":0,"parameterNumber":3,"parameterNumberName":"V-component_of_WINDS"},"data":[0,0,0,0,0,0,0,0,0,0,0,0,0,0,0,0,0,0,0,0,0,0,0,0,0,0,0,0,0,0,0,0,0,0,0,0,0,0,0,0,0,0,0,0,0,0,0,0,0,0,0,0,0,0,0,0,0,0,4.9763,4.9765,0,4.9954,4.9956,4.9958,4.9966,4.9964,4.9962,4.996,5.0146,5.0152,5.0159,0,0,0,0,0,0,0,0,0,0,0,0,0,4.9395,4.9402,4.9763,4.9766,4.9768,4.9953,4.9956,4.9958,4.9967,4.9964,4.9961,4.9959,5.0143,5.0152,5.016,0,0,0,0,0,0,0,0,0,0,0,0,0,4.9567,4.9404,4.9763,4.9795,4.9799,4.9953,4.9956,4.9959,4.9967,4.9964,4.9961,4.9957,5.0141,5.0151,5.0161,5.0293,0,0,5.0193,5.0198,0,0,0,0,0,0,0,0,4.9557,4.958,4.9788,4.9793,4.9798,4.9933,4.9894,5.0071,4.9968,4.9903,4.996,4.9956,5.0077,5.0093,5.0135,5.0302,5.031,5.0194,5.0201,5.0205,5.0208,0,0,0,0,0,0,0,4.9545,4.9572,4.9838,4.979,4.9797,4.9795,4.9816,4.9928,5.0006,4.9909,4.991,4.9933,5.0079,5.0125,5.014,5.0312,5.0194,5.0203,5.021,5.0214,5.0589,5.0592,0,0,0,0,0,0,4.9528,4.9562,4.9832,4.9844,4.9667,4.9805,4.9828,4.9893,5.0005,5.0019,4.9935,4.9932,5.0109,5.0127,5.0146,5.0303,5.0205,5.0215,5.0221,5.0585,5.059,5.0594,0,0,0,0,0,0,4.952,4.9552,4.9824,4.9703,4.9738,4.9815,4.9887,4.9898,4.9944,5.0025,5.0038,4.9969,5.0107,5.0131,5.0255,5.031,5.022,5.0229,5.0581,5.0587,5.0592,5.0621,0,0,0,0,0,0,4.951,4.955,4.9604,4.9705,4.9744,4.9934,4.9891,4.9905,4.9964,4.9962,5.006,5.0073,5.0106,5.024,5.0266,5.0323,5.0238,5.0576,5.0584,5.059,5.0616,5.0627,5.0637,0,0,0,0,0,4.9497,4.9604,4.9606,4.9639,4.9814,4.9938,4.996,4.9999,4.9968,5.0021,5.0071,5.007,5.03,5.0252,5.0282,5.0343,5.0573,5.0582,5.059,5.0611,5.0625,5.0637,0,0,0,0,0,0,4.9505,4.9618,4.9622,4.9766,4.9842,4.9939,5.0007,5.0013,5.0098,5.0092,5.0133,5.0155,5.0277,5.0323,5.0267,5.0473,5.0433,5.0447,5.0439,5.0453,5.0463,5.0448,5.0246,0,0,0,0,0,4.9524,4.9619,4.9711,4.9828,4.9867,4.993,4.9985,5.0008,5.0088,5.012,5.018,5.0255,5.0343,5.0401,5.0487,5.0623,5.0641,5.0679,5.0689,5.0697,5.0709,5.0778,5.0794,5.0621,5.0621,5.062,0,0,4.9564,4.9637,4.9694,4.9832,4.9894,4.9986,4.9957,5.0058,5.0125,5.0134,5.0255,5.0301,5.0386,5.0515,5.0575,5.0557,5.076,5.0708,5.0714,5.0721,5.0788,5.0804,5.0819,5.0626,5.0625,5.0624,0,0,4.9682,4.975,4.9853,4.9915,5.001,5.005,5.0075,5.017,5.0202,5.0324,5.0331,5.041,5.0564,5.0622,5.0672,5.0808,5.0808,5.0835,5.0889,5.0956,5.097,5.0982,5.1026,5.1042,5.0846,5.0846,5.0847,0,4.9718,4.9862,4.9904,5.0004,5.0061,5.0076,5.0177,5.0234,5.0351,5.0389,5.0367,5.0557,5.0616,5.0756,5.0789,5.0831,5.0855,5.0823,5.0965,5.0978,5.099,5.1032,5.1049,5.0849,5.0849,5.0848,5.0848,0,4.9899,4.9998,5.0069,5.0183,5.0249,5.0349,5.0401,5.0462,5.0478,5.0519,5.064,5.0711,5.0809,5.0845,5.0861,5.0986,5.0971,5.0957,5.0917,5.1008,5.1048,5.1065,5.0852,5.0851,5.0851,5.085,0,0,5.0029,5.0163,5.0188,5.0238,5.0342,5.0416,5.0514,5.0613,5.0662,5.0741,5.082,5.0948,5.0934,5.0991,5.1014,5.1073,5.1169,5.1051,5.1053,5.1067,5.1305,5.1313,5.1331,5.117,5.1174,5.1176,5.1296,0,5.0156,5.0334,5.0373,5.0524,5.0612,5.0625,5.0709,5.0779,5.082,5.0897,5.094,5.1028,5.1006,5.1039,5.1099,5.1145,5.1217,5.1138,5.124,5.1243,5.1216,5.1353,5.1363,5.1473,5.1313,5.1316,5.1318,0,5.0328,5.0412,5.0573,5.0661,5.0699,5.0775,5.0865,5.0941,5.1018,5.1043,5.1104,5.112,5.1216,5.1173,5.1303,5.1248,5.1292,5.132,5.1325,5.1334,5.1284,5.1362,5.1509,5.1524,5.1343,5.1341,5.134,0,5.0401,5.0555,5.067,5.0712,5.0819,5.0871,5.0916,5.0991,5.1046,5.1124,5.1159,5.1246,5.1293,5.1358,5.1394,5.136,5.1521,5.1481,5.1539,5.1538,5.1571,5.1568,5.1724,5.1604,5.1604,5.1604,5.1603,0,5.0537,5.0634,5.0704,5.0774,5.0881,5.0922,5.1025,5.107,5.1135,5.1211,5.1226,5.1296,5.1342,5.1416,5.1445,5.1545,5.1567,5.1586,5.1592,5.1584,5.1581,5.1611,5.1603,5.1608,5.1607,5.1606,5.1606,0,5.0637,5.0688,5.0813,5.0904,5.0928,5.1002,5.1077,5.1143,5.1182,5.1277,5.1302,5.1363,5.1451,5.1494,5.1603,5.1622,5.1735,5.1738,5.171,5.1711,5.1766,5.1759,5.1945,5.1969,5.1836,5.1837,5.1838,0,5.0719,5.0794,5.0892,5.0945,5.0992,5.1078,5.1134,5.1175,5.1232,5.1323,5.1377,5.1466,5.154,5.1679,5.1731,5.1813,5.1815,5.1874,5.1827,5.1815,5.1811,5.1805,5.1811,5.1882,5.1883,5.1884,5.1885,0,5.0857,5.0878,5.0961,5.1051,5.1118,5.119,5.1261,5.1302,5.1354,5.1416,5.1508,5.1565,5.1676,5.1763,5.1848,5.189,5.1895,5.19,5.1917,5.1908,5.1887,5.1895,5.1729,5.1895,5.1894,5.1893,5.1893,5.1892,5.0948,5.1013,5.1092,5.1181,5.1239,5.1304,5.1369,5.1417,5.1495,5.159,5.1609,5.1705,5.1774,5.189,5.1935,5.2007,5.1993,5.2019,5.2025,5.203,5.2031,5.1877,5.2023,5.2022,5.2022,5.2022,5.2022,0,5.1084,5.1135,5.1217,5.1316,5.1385,5.1386,5.1463,5.1519,5.1604,5.1671,5.1743,5.1845,5.1928,5.1985,5.2068,5.2115,5.2118,5.2135,5.213,5.2139,5.204,5.2016,5.213,5.213,5.213,5.213,5.213,5.213,5.1163,5.1272,5.1301,5.1437,5.1486,5.1582,5.1625,5.1683,5.1736,5.185,5.192,5.1958,5.2019,5.2106,5.218,5.2194,5.2222,5.2238,5.2251,5.2158,5.2146,5.2135,5.2112,5.2245,5.2245,5.2344,5.2345,5.2345]}]]